sat.trackr.live / text

‹ back to catalog

STARLINK-4307

NORAD 53063 · 2022-077W

PAYLOAD ACTIVE UNKNOWN

§ Identity

Operator
Country
US
Launch date
2022-07-11
Launch site
AFWTR
Launch vehicle
Mass (kg)
RCS (m²)

Purposes: comms

External: N2YO · Heavens-Above · Gunter

§ Orbital elements

Epoch: 2026-09-19T21:55:35.425344Z

Period
93.91 min
Inclination
97.2848°
Eccentricity
0.0001364
Mean motion
15.33433420 rev/d
Perigee alt
464.6 km
Apogee alt
466.5 km
Semi-major
6,843.7 km
B*
1.0689e-5
RAAN
78.6004°
Arg perigee
18.4339°
Mean anomaly
341.6953°
Rev number
10,184

§ Raw data

STARLINK-43071 53063U 22077W   26262.91360446  .00000270  00000+0  10689-4 0  99922 53063  97.2848  78.6004 0001364  18.4339 341.6953 15.33433420101847

JSON: /api/v1/satellites/53063 · /tle

For live sub-satellite position, see the globe view (requires WebGL).

§ Visibility from observer

Set your observer location to see the next 7 days of passes ≥ 10°. The values pass through the URL so the page stays shareable.

No JS? Fill the form by hand. The geolocation button needs JavaScript.